Flag for Canada Weather past 2 weeks in Churchill, Manitoba, Canada

Now
-6 °F

Scattered clouds.


Feels Like: -29 °F
Forecast: N/A
Wind: 18 mph from Northeast

Location: Churchill

Current Time: Mar 3, 2015 at 5:14:49 PM

Latest Report: Mar 3, 2015 at 4:00 PM


Visibility: 15 mi

Pressure: 30.00 "Hg

Humidity: 77%

Dew point: -11 °F

Location of ChurchillLocation

Historic Weather in Churchill — Graph

°F

Churchill temperature yesterday

Maximum temperature yesterday: -2 °F (at 3:00 PM)
Minimum temperature yesterday: -22 °F (at 4:00 AM)
Average temperature yesterday: -11 °F

Past Weeks' High & Low Weather Summary

 TemperatureHumidityPressure
High10 °F (Feb 23, 11:00 AM)92% (Feb 23, 8:00 AM)30.51 "Hg (Feb 23, 8:00 AM)
Low-29 °F (Feb 19, 4:00 AM)52% (Feb 22, 2:00 PM)29.32 "Hg (Feb 23, 12:00 PM)
Average-13 °F71%30.01 "Hg
* Reported Feb 16 4:00 PM — Mar 3 4:00 PM, Churchill, Weather by CustomWeather, © 2015

Note: Actual official high and low records may vary slightly from our data, if they occured in-between our weather recording intervals... More about our weather records

Advertising

Churchill weather history for previous 24 hours

 ConditionsComfort  
Time TempWeatherWind HumidityBarometerVisibility
4:00 PM
Tue, Mar 3
-6 °FScattered clouds.18 mph77%30.00 "Hg15 mi
3:00 PM-6 °FScattered clouds.20 mph70%29.99 "Hg15 mi
2:00 PM-6 °FPartly sunny.17 mph70%29.98 "Hg15 mi
1:00 PM-8 °FPartly sunny.22 mph77%29.97 "Hg15 mi
12:00 PM-9 °FPartly sunny.23 mph77%29.96 "Hg15 mi
11:00 AM-9 °FPartly sunny.22 mph77%29.94 "Hg15 mi
10:00 AM-9 °FHigh level clouds.20 mph70%29.93 "Hg15 mi
9:00 AM-9 °FHigh level clouds.23 mph70%29.90 "Hg15 mi
8:00 AM-9 °FOvercast.20 mph70%29.89 "Hg15 mi
7:00 AM-9 °FOvercast.17 mph77%29.89 "Hg15 mi
6:00 AM-9 °FOvercast.21 mph84%29.88 "Hg15 mi
5:00 AM-8 °FPassing clouds.18 mph77%29.86 "Hg15 mi
4:00 AM-8 °FOvercast.17 mph77%29.85 "Hg15 mi
3:00 AM-8 °FPassing clouds.16 mph77%29.84 "Hg15 mi
2:00 AM-8 °FOvercast.17 mph77%29.84 "Hg15 mi
1:00 AM-6 °FLight snow. Overcast.17 mph70%29.83 "Hg10 mi
12:00 AM-6 °FLight snow. Overcast.18 mph77%29.82 "Hg5 mi
11:00 PM
Mon, Mar 2
-6 °FLight snow. Overcast.18 mph77%29.81 "Hg5 mi
10:00 PM-6 °FLight snow. Overcast.16 mph77%29.82 "Hg5 mi
9:00 PM-6 °FLight snow. Passing clouds.18 mph77%29.82 "Hg10 mi
8:00 PM-4 °FLight snow. Passing clouds.18 mph77%29.82 "Hg10 mi
7:00 PM-4 °FLight snow. Passing clouds.21 mph77%29.82 "Hg10 mi
6:00 PM-4 °FOvercast.16 mph77%29.81 "Hg15 mi
5:00 PM-2 °FMostly cloudy.16 mph77%29.81 "Hg15 mi
Weather by CustomWeather, © 2015

See weather overviewHow to use our weather pages